• In Belgien
  • Länderverzeichnis
  • Für 7 Tage
  • Wassertemperatur
  • Satellitenkarten
  • Wetterkarte
  • Widgets
  • user-avatar
    Anmelden

    Stündliche Wetter Korçe

    Heute, 21 November, Dienstag

    Zeit Temperatur Niederschläge Wind Luftdruck Luftfeuchtigkeit
    00:00 0°C° 0 mm 1 m/S 667 mmHg 73%
    01:00 0°C° 0 mm 1 m/S 666 mmHg 72%
    02:00 0°C° 0 mm 1 m/S 666 mmHg 70%
    03:00 0°C° 0 mm 1 m/S 666 mmHg 69%
    04:00 -1°C° 0 mm 1 m/S 667 mmHg 67%
    05:00 0°C° 0 mm 1 m/S 667 mmHg 64%
    06:00 0°C° 0 mm 1 m/S 667 mmHg 62%
    07:00 0°C° 0 mm 1 m/S 667 mmHg 60%
    08:00 +2°C° 0 mm 1 m/S 668 mmHg 53%
    09:00 +4°C° 0 mm 1 m/S 668 mmHg 47%
    10:00 +6°C° 0 mm 1 m/S 669 mmHg 41%
    11:00 +6°C° 0 mm 1 m/S 669 mmHg 40%
    12:00 +6°C° 0 mm 2 m/S 669 mmHg 40%
    13:00 +7°C° 0 mm 2 m/S 669 mmHg 39%
    14:00 +6°C° 0 mm 2 m/S 669 mmHg 45%
    15:00 +4°C° 0 mm 2 m/S 668 mmHg 50%
    16:00 +4°C° 0 mm 1 m/S 668 mmHg 56%
    17:00 +3°C° 0 mm 1 m/S 668 mmHg 57%
    18:00 +3°C° 0 mm 1 m/S 668 mmHg 58%
    19:00 +2°C° 0 mm 1 m/S 668 mmHg 60%
    20:00 +2°C° 0 mm 1 m/S 668 mmHg 58%
    21:00 +2°C° 0 mm 1 m/S 668 mmHg 57%
    22:00 +2°C° 0 mm 1 m/S 668 mmHg 56%
    23:00 +2°C° 0 mm 1 m/S 668 mmHg 55%

    Morgen, 22 November, Mittwoch

    Zeit Temperatur Niederschläge Wind Luftdruck Luftfeuchtigkeit
    00:00 +2°C° 0 mm 1 m/S 668 mmHg 53%
    01:00 +1°C° 0 mm 1 m/S 668 mmHg 52%
    02:00 +2°C° 0 mm 1 m/S 668 mmHg 52%
    03:00 +2°C° 0 mm 1 m/S 668 mmHg 52%
    04:00 +2°C° 0 mm 1 m/S 668 mmHg 52%
    05:00 +2°C° 0 mm 1 m/S 668 mmHg 54%
    06:00 +2°C° 0 mm 1 m/S 668 mmHg 55%
    07:00 +2°C° 0 mm 1 m/S 668 mmHg 56%
    08:00 +4°C° 0 mm 1 m/S 669 mmHg 53%
    09:00 +6°C° 0 mm 1 m/S 669 mmHg 51%
    10:00 +8°C° 0 mm 1 m/S 670 mmHg 48%
    11:00 +9°C° 0 mm 1 m/S 670 mmHg 48%
    12:00 +9°C° 0 mm 2 m/S 670 mmHg 48%
    13:00 +9°C° 0 mm 2 m/S 670 mmHg 49%
    14:00 +8°C° 0 mm 2 m/S 669 mmHg 55%
    15:00 +8°C° 0 mm 1 m/S 669 mmHg 61%
    16:00 +7°C° 0 mm 1 m/S 669 mmHg 68%
    17:00 +6°C° 0 mm 1 m/S 668 mmHg 70%
    18:00 +5°C° 0 mm 1 m/S 668 mmHg 72%
    19:00 +4°C° 0 mm 1 m/S 668 mmHg 74%
    20:00 +4°C° 0 mm 1 m/S 668 mmHg 73%
    21:00 +4°C° 0 mm 1 m/S 668 mmHg 72%
    22:00 +4°C° 0 mm 1 m/S 668 mmHg 72%
    23:00 +4°C° 0 mm 1 m/S 668 mmHg 70%

    übermorgen, 23 November, Donnerstag

    Zeit Temperatur Niederschläge Wind Luftdruck Luftfeuchtigkeit
    00:00 +4°C° 0 mm 1 m/S 668 mmHg 69%
    01:00 +4°C° 0 mm 1 m/S 668 mmHg 67%
    02:00 +3°C° 0 mm 1 m/S 668 mmHg 67%
    03:00 +3°C° 0 mm 1 m/S 668 mmHg 66%
    04:00 +3°C° 0 mm 1 m/S 668 mmHg 65%
    05:00 +3°C° 0 mm 1 m/S 668 mmHg 64%
    06:00 +3°C° 0 mm 1 m/S 668 mmHg 63%
    07:00 +3°C° 0 mm 1 m/S 668 mmHg 62%
    08:00 +6°C° 0 mm 1 m/S 669 mmHg 57%
    09:00 +8°C° 0 mm 1 m/S 670 mmHg 51%
    10:00 +10°C° 0 mm 1 m/S 671 mmHg 45%
    11:00 +11°C° 0 mm 1 m/S 670 mmHg 45%
    12:00 +12°C° 0 mm 1 m/S 670 mmHg 44%
    13:00 +12°C° 0 mm 2 m/S 670 mmHg 44%
    14:00 +11°C° 0 mm 1 m/S 670 mmHg 50%
    15:00 +9°C° 0 mm 1 m/S 670 mmHg 57%
    16:00 +8°C° 0 mm 1 m/S 669 mmHg 63%
    17:00 +7°C° 0 mm 1 m/S 669 mmHg 66%
    18:00 +6°C° 0 mm 1 m/S 669 mmHg 68%
    19:00 +5°C° 0 mm 1 m/S 669 mmHg 71%
    20:00 +5°C° 0 mm 1 m/S 669 mmHg 70%
    21:00 +5°C° 0 mm 1 m/S 670 mmHg 69%
    22:00 +5°C° 0 mm 1 m/S 670 mmHg 68%
    23:00 +5°C° 0 mm 1 m/S 670 mmHg 67%

    24 November, Freitag

    Zeit Temperatur Niederschläge Wind Luftdruck Luftfeuchtigkeit
    00:00 +5°C° 0 mm 1 m/S 669 mmHg 66%
    01:00 +5°C° 0 mm 1 m/S 669 mmHg 65%
    02:00 +4°C° 0 mm 1 m/S 669 mmHg 64%
    03:00 +4°C° 0 mm 1 m/S 669 mmHg 63%
    04:00 +4°C° 0 mm 1 m/S 669 mmHg 63%
    05:00 +4°C° 0 mm 1 m/S 669 mmHg 63%
    06:00 +4°C° 0 mm 1 m/S 669 mmHg 63%
    07:00 +4°C° 0 mm 1 m/S 669 mmHg 63%
    08:00 +5°C° 0 mm 0 m/S 670 mmHg 58%
    09:00 +7°C° 0 mm 0 m/S 671 mmHg 53%
    10:00 +9°C° 0 mm 0 m/S 671 mmHg 47%
    11:00 +11°C° 0 mm 1 m/S 671 mmHg 46%
    12:00 +12°C° 0 mm 1 m/S 671 mmHg 45%
    13:00 +12°C° 0 mm 1 m/S 671 mmHg 44%
    14:00 +11°C° 0 mm 1 m/S 671 mmHg 51%
    15:00 +10°C° 0 mm 1 m/S 670 mmHg 59%
    16:00 +8°C° 0 mm 1 m/S 670 mmHg 66%
    17:00 +7°C° 0 mm 1 m/S 670 mmHg 69%
    18:00 +6°C° 0 mm 1 m/S 670 mmHg 72%
    19:00 +6°C° 0 mm 1 m/S 670 mmHg 76%
    20:00 +5°C° 0 mm 1 m/S 670 mmHg 76%
    21:00 +5°C° 0 mm 1 m/S 670 mmHg 76%
    22:00 +5°C° 0 mm 1 m/S 671 mmHg 76%
    23:00 +5°C° 0 mm 1 m/S 670 mmHg 76%

    25 November, Samstag

    Zeit Temperatur Niederschläge Wind Luftdruck Luftfeuchtigkeit
    00:00 +4°C° 0 mm 1 m/S 670 mmHg 76%
    01:00 +4°C° 0 mm 1 m/S 670 mmHg 77%
    02:00 +4°C° 0 mm 1 m/S 670 mmHg 77%
    03:00 +4°C° 0 mm 1 m/S 670 mmHg 77%
    04:00 +4°C° 0 mm 1 m/S 670 mmHg 78%
    05:00 +4°C° 0 mm 1 m/S 670 mmHg 78%
    06:00 +3°C° 0 mm 1 m/S 670 mmHg 79%
    07:00 +3°C° 0 mm 1 m/S 670 mmHg 79%
    08:00 +5°C° 0 mm 1 m/S 671 mmHg 73%
    09:00 +7°C° 0 mm 1 m/S 672 mmHg 66%
    10:00 +10°C° 0 mm 1 m/S 673 mmHg 60%
    11:00 +10°C° 0 mm 1 m/S 673 mmHg 57%
    12:00 +11°C° 0 mm 1 m/S 673 mmHg 55%
    13:00 +12°C° 0 mm 1 m/S 672 mmHg 52%
    14:00 +10°C° 0 mm 1 m/S 672 mmHg 58%
    15:00 +9°C° 0 mm 1 m/S 672 mmHg 64%
    16:00 +8°C° 0 mm 1 m/S 671 mmHg 70%
    17:00 +7°C° 0 mm 1 m/S 671 mmHg 74%
    18:00 +6°C° 0 mm 1 m/S 671 mmHg 77%
    19:00 +5°C° 0 mm 1 m/S 671 mmHg 80%
    20:00 +5°C° 0 mm 1 m/S 672 mmHg 81%
    21:00 +5°C° 0 mm 1 m/S 672 mmHg 82%
    22:00 +5°C° 0 mm 1 m/S 672 mmHg 83%
    23:00 +4°C° 0 mm 1 m/S 672 mmHg 83%

    26 November, Sonntag

    Zeit Temperatur Niederschläge Wind Luftdruck Luftfeuchtigkeit
    00:00 +4°C° 0 mm 1 m/S 672 mmHg 83%
    01:00 +4°C° 0 mm 1 m/S 672 mmHg 83%
    02:00 +4°C° 0 mm 1 m/S 672 mmHg 83%
    03:00 +4°C° 0 mm 1 m/S 671 mmHg 83%
    04:00 +4°C° 0 mm 1 m/S 671 mmHg 83%
    05:00 +4°C° 0 mm 1 m/S 671 mmHg 82%
    06:00 +3°C° 0 mm 1 m/S 671 mmHg 82%
    07:00 +3°C° 0 mm 1 m/S 672 mmHg 81%
    08:00 +5°C° 0 mm 1 m/S 672 mmHg 74%
    09:00 +8°C° 0 mm 1 m/S 673 mmHg 67%
    10:00 +10°C° 0 mm 1 m/S 673 mmHg 60%
    11:00 +10°C° 0 mm 1 m/S 673 mmHg 57%
    12:00 +11°C° 0 mm 1 m/S 673 mmHg 55%
    13:00 +11°C° 0 mm 1 m/S 673 mmHg 53%
    14:00 +10°C° 0 mm 1 m/S 672 mmHg 59%
    15:00 +9°C° 0 mm 1 m/S 672 mmHg 65%
    16:00 +8°C° 0 mm 1 m/S 672 mmHg 71%
    17:00 +7°C° 0 mm 1 m/S 672 mmHg 75%
    18:00 +6°C° 0 mm 1 m/S 672 mmHg 78%
    19:00 +5°C° 0 mm 0 m/S 672 mmHg 82%
    20:00 +5°C° 0 mm 0 m/S 672 mmHg 83%
    21:00 +5°C° 0 mm 1 m/S 672 mmHg 83%
    22:00 +5°C° 0 mm 1 m/S 672 mmHg 84%
    23:00 +5°C° 0 mm 1 m/S 671 mmHg 84%
    Mehr zeigen